Flag for Germany Weather past 2 weeks in Leverkusen, North Rhine-Westphalia, Germany

Now
72 °F

Sunny.


Feels Like: 76 °F
Forecast: 46 / 64 °F
Wind: 14 mph from Southeast

Location: Koeln / Bonn


UV Index: 0 (Low)

Visibility: 10 mi


Pressure: 29.65 "Hg

Humidity: 29%

Dew point: 37 °F

Location of LeverkusenLocation

Historic Weather in Leverkusen

°F

Leverkusen temperature yesterday

Maximum temperature yesterday: 66 °F (at 4:50 PM)
Minimum temperature yesterday: 37 °F (at 12:50 AM)
Average temperature yesterday: 51 °F

Past Weeks' High & Low Weather Summary

 TemperatureHumidityPressure
High72 °F (Apr 7, 3:50 PM)100% (Apr 6, 4:20 AM)30.45 "Hg (Apr 6, 4:20 AM)
Low28 °F (Apr 16, 6:20 AM)26% (Apr 17, 4:20 PM)29.65 "Hg (Apr 20, 4:50 PM)
Average52 °F67%30.08 "Hg
* Reported Apr 5 4:20 PM — Apr 20 4:50 PM, Leverkusen, Weather by CustomWeather, © 2014

Note: Actual official high and low records may vary slightly from our data, if they occured in-between our weather recording intervals... More about our weather records

Advertising

Historic Weather Conditions — Data for Previous 24 hours

 ConditionsComfort  
Time TempWeatherWind HumidityBarometerVisibility
4:50 PM
Apr 20
70 °FSunny.14 mph31%29.65 "Hg10 mi
4:20 PM70 °FPassing clouds.8 mph29%29.68 "HgN/A
3:50 PM70 °FSunny.9 mph31%29.68 "Hg10 mi
3:20 PM72 °FSunny.10 mph31%29.68 "Hg10 mi
2:50 PM70 °FPassing clouds.9 mph38%29.68 "HgN/A
2:20 PM66 °FSunny.14 mph40%29.68 "Hg10 mi
1:50 PM70 °FSunny.10 mph38%29.68 "Hg10 mi
1:20 PM68 °FSunny.15 mph40%29.71 "Hg10 mi
12:50 PM68 °FSunny.17 mph38%29.71 "Hg10 mi
12:20 PM66 °FSunny.12 mph43%29.71 "Hg10 mi
11:50 AM66 °FSunny.12 mph43%29.71 "Hg10 mi
11:20 AM66 °FSunny.15 mph43%29.71 "Hg10 mi
10:50 AM66 °FSunny.15 mph46%29.71 "Hg10 mi
10:20 AM64 °FSunny.13 mph49%29.74 "Hg10 mi
9:50 AM64 °FSunny.9 mph52%29.74 "Hg10 mi
9:20 AM63 °FSunny.9 mph56%29.74 "Hg10 mi
8:50 AM61 °FSunny.10 mph59%29.74 "Hg10 mi
8:20 AM59 °FSunny.10 mph68%29.74 "Hg10 mi
7:50 AM57 °FSunny.7 mph72%29.74 "Hg10 mi
7:20 AM52 °FClear.3 mph82%29.74 "Hg10 mi
6:50 AM55 °FClear.2 mph77%29.74 "Hg5 mi
6:20 AM55 °FClear.6 mph77%29.74 "Hg10 mi
5:50 AM50 °FClear.3 mph94%29.74 "Hg10 mi
5:20 AM46 °FFog.2 mph93%29.77 "HgN/A
4:50 AM48 °FFog.2 mph94%29.77 "HgN/A
4:20 AM48 °FClear.1 mph94%29.77 "Hg10 mi
3:50 AM48 °FClear.2 mph94%29.77 "Hg10 mi
3:20 AM50 °FClear.2 mph88%29.80 "Hg10 mi
2:50 AM48 °FClear.3 mph87%29.80 "Hg10 mi
2:20 AM52 °FClear.3 mph77%29.80 "Hg10 mi
1:50 AM55 °FClear.2 mph72%29.80 "Hg10 mi
1:20 AM55 °FClear.8 mph72%29.80 "Hg10 mi
12:50 AM55 °FClear.9 mph72%29.83 "Hg10 mi
12:20 AM55 °FClear.7 mph72%29.83 "Hg10 mi
11:50 PM
Apr 19
55 °FClear.7 mph72%29.83 "Hg10 mi
11:20 PM55 °FClear.9 mph72%29.86 "Hg10 mi
10:50 PM57 °FClear.10 mph67%29.86 "Hg10 mi
10:20 PM57 °FClear.6 mph63%29.86 "Hg10 mi
9:50 PM57 °FClear.7 mph63%29.86 "Hg10 mi
9:20 PM59 °FSunny.10 mph59%29.86 "Hg10 mi
8:50 PM59 °FSunny.9 mph55%29.86 "Hg10 mi
8:20 PM59 °FSunny.8 mph55%29.86 "Hg10 mi
7:50 PM61 °FSunny.6 mph52%29.86 "Hg10 mi
7:20 PM63 °FPassing clouds.13 mph49%29.86 "HgN/A
6:50 PM63 °FPassing clouds.14 mph49%29.86 "HgN/A
6:20 PM64 °FPassing clouds.15 mph43%29.86 "HgN/A
5:50 PM64 °FScattered clouds.7 mph46%29.86 "HgN/A
5:20 PM64 °FSunny.14 mph40%29.86 "Hg10 mi
Weather by CustomWeather, © 2014

See weather overview